CAPE
0 0 0 0 0 0 0 0 0 0 0 0 0 0 0 0 0 0 0 0 0 0
0 0 0 0 0 0 0 0 0 0 0 0 0 0 0 0 0 0 0 0 0 0
0 0 0 0 0 0 0 0 0 0 0 0 0 0 0 0 0 0 0 0 0 0
0 0 0 0 0 0 0 0 0 0 0 0 0 0 0 0 0 0 0 0 0 0
0 0 0 0 0 0 0 0 0 0 0 0 0 0 0 0 0 0 0 0 0 0
0 0 0 0 0 0 0 0 0 0 0 0 0 0 0 0 0 0 0 0 0 0
0 0 0 0 0 0 0 0 0 0 0 0 0 0 0 0 0 0 0 0 0 0
0 0 0 0 0 0 0 0 0 0 0 0 0 0 0 0 0 0 0 0 0 0
0 0 0 0 0 0 0 0 0 0 0 0 0 0 4 3 0 0 0 0 0 0
0 0 0 0 0 0 0 0 0 0 0 0 0 0 3 6 2 2 1 2 1 0
0 0 0 0 0 0 0 0 0 0 0 0 0 3 7 8 2 0 0 1 9 12
0 0 0 0 0 0 0 0 0 0 0 0 0 5 13 17 7 12 8 5 5 6
0 0 0 0 0 0 0 0 0 0 0 0 0 3 13 22 5 0 4 5 9 20
0 0 0 0 0 0 0 0 0 0 0 0 0 0 12 22 18 8 0 0 3 9
CIN
0 0 0 0 0 0 0 0 0 0 0 0 0 0 0 0 0 0 0 0 0 0
0 0 0 0 0 0 0 0 0 0 0 0 0 0 0 0 0 0 0 0 0 0
0 0 0 0 0 0 0 0 0 0 0 0 0 0 0 0 0 0 0 0 0 0
0 0 0 0 0 0 0 0 0 0 0 0 0 0 0 0 0 0 0 0 0 0
0 0 0 0 0 0 0 0 0 0 0 0 0 0 0 0 0 0 0 0 0 0
0 0 0 0 0 0 0 0 0 0 0 0 0 0 0 0 0 0 0 0 0 0
0 0 0 0 0 0 0 0 0 0 0 0 0 0 0 0 0 0 0 0 0 0
0 0 0 0 0 0 0 0 0 0 0 0 0 0 0 0 0 0 0 0 0 0
0 0 0 0 0 0 0 0 0 0 0 0 0 0 0 0 0 0 0 0 0 0
0 0 0 0 0 0 0 0 0 0 0 0 0 0 0 0 0 0 0 0 0 0
0 0 0 0 0 0 0 0 0 0 0 0 0 0 0 0 0 0 0 0 0 0
0 0 0 0 0 0 0 0 0 0 0 0 0 0 0 0 0 0 0 0 0 0
0 0 0 0 0 0 0 0 0 0 0 0 0 0 0 0 0 -1 0 0 0 0
0 0 0 0 0 0 0 0 0 0 0 0 0 0 0 0 0 0 -1 0 0 0
Wind_Speed
8 6 6 8 7 6 7 7 9 9 9 10 9 9 8 4 5 5 4 8 9 9
5 5 5 6 4 4 4 6 8 9 10 10 9 9 8 5 6 5 5 6 6 7
5 6 6 6 7 7 6 7 8 8 9 10 9 8 8 7 7 6 5 5 6 6
5 6 6 6 6 6 6 6 8 9 8 9 9 8 6 7 8 9 9 7 6 7
2 3 4 5 6 6 8 7 6 8 9 9 10 9 8 10 8 9 11 12 9 8
3 3 4 5 6 6 7 7 9 9 9 11 12 12 12 11 12 11 11 11 12 12
3 3 4 4 5 5 6 7 8 8 10 11 12 12 12 12 12 13 13 13 13 13
5 5 5 6 7 7 9 10 11 12 12 12 12 10 12 13 14 14 16 16 15 14
6 8 8 8 9 11 13 13 14 14 15 16 12 22 26 22 15 16 16 17 16 15
5 5 7 9 12 13 14 14 14 15 15 17 17 27 29 29 17 17 17 18 17 16
4 5 8 10 11 12 12 13 14 14 15 16 14 28 30 30 19 17 19 19 19 18
2 4 8 9 11 11 12 13 13 14 15 15 15 26 28 25 16 16 18 17 18 18
5 4 8 10 11 11 10 14 12 14 14 16 16 24 27 23 12 15 13 15 17 23
6 7 9 10 9 11 12 13 12 14 13 15 15 17 26 26 15 12 13 13 12 11
Wind_Direction
38 37 33 33 30 26 16 359 352 352 352 355 357 359 356 345 328 310 288 278 272 271
46 44 33 33 33 20 355 354 359 351 344 345 350 353 353 344 333 326 299 279 265 261
26 22 15 14 12 6 352 347 345 344 339 334 338 342 348 339 328 322 308 292 276 267
24 12 1 5 354 344 335 334 330 327 331 325 317 321 332 323 318 321 307 295 279 271
21 2 349 342 337 337 325 325 306 312 322 318 311 312 314 308 301 299 305 305 301 281
280 308 305 308 309 310 305 302 304 305 304 308 308 308 310 306 301 294 284 283 284 287
331 312 300 299 297 285 282 286 294 293 298 296 294 295 300 296 295 293 292 288 279 277
336 330 332 340 330 322 320 315 310 307 302 297 293 295 300 300 301 299 293 290 284 281
354 352 345 339 334 324 317 315 313 309 307 304 300 305 305 301 291 286 284 284 285 286
354 350 343 331 323 318 315 313 309 307 307 303 306 310 307 306 299 295 288 285 284 282
17 336 321 316 310 308 307 306 306 305 305 300 303 309 309 305 297 292 289 287 286 284
323 295 307 301 301 302 302 301 300 298 302 301 299 303 302 303 296 287 286 286 284 283
313 296 300 296 297 295 291 293 298 295 295 294 294 297 299 299 289 285 286 284 284 282
298 294 288 286 290 294 292 292 290 291 293 289 284 285 292 294 291 287 285 281 283 284